Wind_Speed
35 31 29 30 29 23 18 13 10 8 7 6 6 5 5 4 4 4 4 6 7 8 8 9 9 9 10 10 10 10 10 10 11 12 12 12 12 12 12 13 13 13 14 14 14 14 14 14 13 11 9 7 5 5 5 6 7 7 8 8 8 8 8 9 10 11 11 12 12 12 11 11 11 12 13 14 15 17 17 19 20 21 22 24 25
35 32 31 32 30 26 20 15 11 9 7 6 5 5 4 4 4 4 4 5 6 7 7 7 8 8 8 8 8 8 8 8 8 9 9 9 10 9 9 9 9 8 8 7 7 6 4 3 3 3 5 6 6 7 7 8 8 8 8 8 9 9 10 10 11 11 11 11 11 11 11 12 13 14 15 16 17 18 19 20 21 22 23 24 26
36 32 32 33 32 28 23 18 14 10 7 5 4 3 3 3 3 3 4 4 5 6 6 6 6 6 6 6 6 5 5 5 4 5 5 5 4 3 2 1 1 2 3 4 5 6 7 8 8 9 9 9 9 9 9 9 9 10 10 11 11 11 11 11 10 10 10 11 11 12 13 14 15 16 17 18 19 19 20 20 21 22 24 25 26
36 33 32 33 32 30 26 21 17 13 10 7 4 3 2 2 2 2 3 3 4 4 4 4 5 5 5 4 3 2 1 1 2 2 2 3 4 6 7 8 10 10 11 11 11 11 11 11 11 11 11 10 10 10 11 11 12 12 12 11 11 10 10 10 10 10 11 12 13 14 14 15 16 17 18 19 20 20 21 21 22 23 24 25 26
36 33 32 32 31 30 27 23 19 16 13 10 7 5 4 3 2 1 1 1 2 2 3 3 3 3 2 2 3 5 7 8 9 10 10 11 12 13 14 14 14 14 14 14 14 13 13 13 13 12 12 13 13 13 13 13 12 12 11 10 10 10 10 11 11 11 12 13 14 15 16 17 17 19 19 20 21 21 21 21 22 23 24 25 27
36 33 31 31 30 30 27 24 21 18 15 13 11 9 8 7 6 5 4 3 3 3 3 4 4 5 6 8 10 12 13 14 15 16 16 17 17 17 17 17 17 16 16 15 15 15 14 15 15 15 15 15 14 14 13 13 12 11 11 11 11 11 11 12 12 13 13 14 15 16 17 18 18 19 20 20 21 21 21 21 22 24 25 27 30
35 33 31 30 29 29 27 25 23 20 18 16 14 13 12 11 10 9 9 8 8 9 9 10 11 12 13 15 17 18 19 20 20 20 20 20 19 19 19 18 17 17 17 17 16 16 17 17 17 17 16 15 15 14 14 13 12 12 12 12 12 12 13 14 14 15 16 16 17 17 18 18 18 19 20 20 21 22 22 23 24 26 28 30 32
34 33 31 29 28 28 27 26 24 22 20 19 17 16 15 14 14 13 13 13 14 14 15 16 17 18 19 21 22 23 23 23 23 22 21 21 20 20 19 19 19 19 19 19 19 19 18 18 17 17 16 16 15 14 13 13 12 12 12 13 14 14 15 16 17 17 18 19 19 19 19 20 20 20 21 21 22 23 23 24 26 28 30 31 33
34 32 31 29 27 27 26 26 24 23 22 21 20 19 18 18 18 18 18 18 19 19 19 20 21 22 23 24 25 25 24 24 23 22 22 21 21 21 21 21 21 20 20 20 19 19 18 17 17 16 15 15 14 13 13 13 13 13 14 15 16 16 17 18 19 19 20 21 21 21 22 22 22 23 23 24 24 25 26 27 28 29 31 32 34
33 32 30 29 27 26 26 25 24 23 22 21 21 21 21 21 21 22 22 22 23 23 23 24 25 25 25 26 26 25 24 24 23 23 23 23 23 22 22 22 21 21 20 19 18 18 17 16 15 15 15 14 14 14 15 15 16 16 17 18 18 19 19 20 20 21 21 22 23 23 23 24 24 25 26 27 28 29 29 30 31 32 33 33 34
32 32 30 29 27 26 25 25 24 23 22 21 21 21 22 22 23 23 23 24 24 25 25 25 26 26 26 26 26 25 25 25 25 24 24 23 23 22 21 21 20 19 18 17 17 16 16 16 16 16 16 16 16 17 17 18 19 20 20 21 21 21 22 22 22 23 23 24 25 25 26 26 27 28 28 29 31 32 33 34 35 35 36 37 37
31 31 30 29 27 26 25 24 24 22 22 21 21 21 22 22 23 23 24 24 24 25 25 25 25 25 25 26 26 26 26 25 25 24 23 22 21 20 19 19 18 18 17 17 17 17 17 17 17 18 18 18 19 20 20 21 21 22 22 22 23 23 24 24 25 26 26 27 28 28 29 29 30 31 32 33 34 35 36 37 38 39 40 40 41
29 30 30 29 28 26 25 24 23 22 21 21 21 21 22 22 22 23 23 23 24 24 24 24 24 25 25 25 26 26 25 24 24 22 21 20 20 19 18 18 18 18 18 18 18 18 18 18 19 19 19 20 21 21 22 22 22 23 23 23 24 24 25 26 27 27 28 29 30 31 31 32 33 33 34 35 36 37 38 39 40 41 42 42 43
28 29 29 29 28 26 25 24 23 22 21 21 21 21 22 22 22 22 22 23 23 23 23 23 24 24 25 25 26 25 24 23 22 21 20 20 19 19 18 18 18 18 19 19 19 19 19 19 19 20 21 21 22 22 23 23 23 24 24 25 25 26 26 27 28 29 30 31 32 32 33 33 34 34 35 36 37 38 39 40 42 42 43 44 45
26 28 28 28 28 27 26 25 24 23 22 22 22 22 22 22 22 22 23 23 23 23 23 23 24 24 25 26 25 25 23 22 21 21 20 20 19 19 19 19 19 19 19 19 19 20 20 20 21 21 22 22 23 23 24 24 25 25 26 27 27 28 28 29 30 30 31 32 33 33 34 34 34 35 35 36 37 38 40 41 42 43 43 44 46
24 26 27 27 27 27 26 25 25 24 24 24 24 24 24 24 24 24 24 24 24 24 24 24 25 25 26 26 25 24 23 22 21 20 20 19 19 19 19 20 20 20 20 20 20 21 21 21 22 22 23 23 23 24 24 25 25 26 27 27 28 28 29 30 30 31 31 32 32 33 33 34 34 35 36 37 38 39 40 41 42 43 43 45 46
22 24 25 25 25 26 26 26 25 25 25 25 25 25 25 25 25 24 24 25 25 25 25 25 25 25 25 24 24 23 22 21 20 20 20 20 20 20 20 21 21 21 21 22 22 22 22 22 22 23 23 23 23 23 24 24 25 25 26 26 27 28 28 28 29 29 29 30 30 31 32 33 34 36 37 38 39 40 41 42 43 44 45 47 49
19 21 23 24 23 23 24 25 25 25 24 24 24 24 24 24 24 24 24 24 24 24 23 23 23 23 23 23 22 22 21 21 20 20 21 21 21 21 21 21 21 21 21 21 21 21 21 22 21 22 22 22 23 23 23 24 25 25 26 27 27 28 28 29 29 29 29 29 30 31 32 33 35 36 37 39 40 41 42 43 45 46 48 49 51
17 19 20 21 21 21 21 23 23 24 24 24 24 24 23 23 23 22 22 22 22 22 21 21 21 21 22 21 21 21 21 21 20 20 20 20 20 20 19 19 19 19 19 19 19 20 20 20 20 21 21 22 23 24 25 26 27 27 28 29 30 30 31 31 31 31 31 31 32 33 34 35 36 37 39 40 41 42 43 45 46 47 48 49 50
15 16 17 18 19 18 18 19 21 22 23 23 23 23 23 23 22 22 22 22 21 21 21 21 20 20 20 20 20 20 19 19 18 18 17 17 17 17 17 17 18 18 18 18 19 20 20 21 21 22 23 24 25 26 27 28 28 29 30 31 32 33 34 35 35 36 36 36 36 36 37 37 38 39 41 41 42 43 44 45 46 47 47 48 48
14 14 14 15 16 16 15 16 17 19 20 21 21 22 22 22 22 22 22 21 21 20 20 20 19 19 18 18 18 18 17 17 16 16 16 16 16 16 16 17 17 18 18 19 19 20 21 22 22 23 24 25 26 27 28 29 30 31 32 33 34 35 37 38 39 40 40 41 41 41 41 40 40 41 42 42 43 44 45 45 46 46 47 48 48
13 12 12 12 13 14 14 13 13 15 16 17 18 19 20 20 20 20 20 20 19 19 19 18 18 17 17 16 16 16 16 16 16 15 15 16 16 16 17 17 18 18 19 19 20 21 22 23 23 25 26 27 28 29 30 31 32 33 35 36 37 38 39 41 41 42 43 44 44 45 44 44 43 43 43 44 45 45 46 46 47 47 48 48 49
14 13 11 10 10 11 12 12 11 11 12 13 14 15 16 16 17 17 18 18 17 17 17 16 16 16 16 15 15 15 15 15 15 16 16 16 17 17 18 18 19 19 20 21 22 23 23 24 25 26 27 29 30 31 32 33 35 36 37 38 39 40 42 43 44 44 45 46 47 47 47 47 46 46 46 46 47 47 48 48 48 48 49 50 51
15 14 12 10 9 9 9 10 11 10 10 11 11 12 13 13 14 14 14 15 15 15 14 14 14 14 14 14 14 15 15 15 15 15 16 16 17 18 18 19 20 20 21 22 24 25 26 27 28 29 30 31 32 33 35 36 37 38 39 40 41 42 43 44 45 46 47 48 49 50 50 50 50 49 50 50 50 51 51 51 52 52 52 53 54
16 16 14 12 10 8 8 8 9 10 10 11 10 10 10 11 12 12 13 13 13 13 13 13 13 13 13 13 14 14 14 15 15 15 16 17 17 18 19 20 21 22 23 24 25 27 28 30 31 32 32 33 35 36 37 38 39 40 41 42 43 44 45 46 47 48 49 50 51 51 52 53 53 54 54 54 54 55 55 56 56 57 57 57 57
17 16 16 14 12 10 8 8 8 8 9 10 11 10 10 10 11 12 12 13 13 13 13 13 13 13 13 14 14 15 15 16 16 17 17 18 19 19 20 21 22 23 24 26 27 28 30 31 33 34 35 35 37 38 39 40 41 42 43 44 45 46 47 48 49 50 50 51 52 53 54 55 56 57 57 58 59 59 59 60 60 61 61 61 61
18 17 17 16 14 13 11 9 9 8 8 8 9 10 11 11 12 13 13 13 14 14 14 14 15 15 15 15 16 16 17 18 18 19 19 20 20 21 22 22 23 24 26 27 28 30 31 33 35 36 37 37 38 40 41 42 43 44 46 46 48 49 50 51 52 53 53 54 55 55 56 57 58 59 60 61 62 63 63 63 63 64 65 65 65
19 19 19 18 16 15 13 12 11 10 9 9 9 10 11 12 13 13 14 14 15 15 16 16 17 17 17 17 17 18 19 19 20 21 21 22 23 23 24 25 26 26 27 29 30 32 33 34 36 37 39 40 40 41 42 44 45 46 48 49 50 51 52 53 54 56 57 57 58 58 58 59 60 61 62 64 65 66 66 65 65 66 67 68 69
21 20 20 19 18 17 16 14 13 13 12 11 11 11 11 12 13 14 15 16 16 17 18 18 19 19 19 20 20 20 20 21 22 22 23 24 25 25 26 27 28 29 30 31 33 34 35 36 37 39 40 41 42 43 44 45 47 48 50 51 52 53 55 56 57 58 60 61 61 61 61 62 62 63 64 66 67 68 68 68 68 68 70 71 72
23 22 21 21 20 20 19 17 16 15 15 14 13 13 13 14 14 15 16 17 18 18 19 20 20 21 21 22 22 22 23 23 24 24 25 26 27 28 28 29 30 31 32 33 35 36 37 38 39 40 41 42 43 44 45 47 49 50 51 53 54 55 57 58 60 61 62 63 64 64 64 65 65 66 67 68 69 71 71 71 71 71 72 73 74
24 24 23 23 23 22 21 20 18 18 18 18 17 16 16 16 16 17 17 18 19 20 21 21 22 23 23 24 25 25 25 26 26 27 27 28 29 30 30 31 31 32 34 35 36 37 38 39 40 41 42 44 44 45 46 48 50 52 53 54 55 56 58 60 61 63 64 66 67 67 67 68 68 69 69 71 72 73 74 75 75 75 76 76 77
26 26 25 25 25 24 23 22 21 21 21 21 20 20 19 19 19 19 20 20 21 21 22 23 24 25 25 26 27 27 28 28 29 29 30 30 31 32 32 33 34 34 36 37 38 39 40 41 42 42 44 45 46 46 47 48 51 52 53 55 56 58 59 61 62 64 66 68 69 70 70 71 71 72 73 73 74 76 77 78 79 79 80 80 80
27 27 27 27 27 26 25 24 23 24 23 23 22 22 22 22 23 22 23 23 24 23 23 24 24 26 27 28 29 29 30 30 31 32 32 32 33 34 35 35 36 37 38 40 41 41 42 43 43 44 45 46 47 48 48 50 52 53 54 56 57 59 60 62 64 66 68 69 71 72 72 73 74 75 76 77 77 78 79 81 82 82 83 83 83
29 29 29 28 29 28 28 26 25 26 26 25 24 24 25 26 26 26 25 26 27 26 26 26 26 27 28 29 31 31 31 32 33 34 34 34 35 36 37 38 38 39 40 42 43 44 45 46 46 46 47 48 49 50 51 52 54 55 56 58 59 60 62 64 66 68 70 71 72 73 74 75 76 78 78 80 80 80 81 83 84 85 85 86 87
31 31 31 31 31 31 30 29 28 27 27 27 27 26 27 28 29 29 28 29 30 30 29 29 29 29 29 30 32 32 33 34 34 35 36 36 37 38 39 40 40 41 42 44 45 47 48 49 49 49 49 50 51 52 53 54 56 58 59 60 61 62 64 65 67 70 72 73 74 75 75 76 77 79 81 82 83 83 83 85 86 87 88 88 89
33 33 34 34 33 33 33 31 30 29 29 29 30 29 28 29 31 31 31 33 33 33 32 32 32 32 32 32 33 33 34 35 35 37 38 38 39 40 41 42 43 43 44 46 47 49 50 51 52 52 52 53 54 55 55 56 57 59 61 62 63 64 64 66 68 72 74 75 76 76 77 77 77 80 83 84 85 85 86 86 87 89 90 91 92
35 35 35 36 35 35 35 33 32 32 31 31 32 31 30 30 31 32 34 36 37 36 35 35 35 36 36 36 36 35 35 36 37 38 40 40 41 41 42 43 44 45 46 47 49 50 51 52 54 55 55 56 57 58 58 58 59 60 62 64 65 65 66 67 71 74 76 77 77 78 78 78 78 81 84 86 87 87 88 88 89 90 91 93 94
37 37 37 37 37 37 38 37 35 34 34 34 34 34 33 32 32 33 34 37 40 40 39 39 39 39 40 40 40 39 38 39 39 40 41 41 42 42 43 44 45 47 47 48 50 52 53 54 55 56 57 58 60 60 60 60 60 63 66 68 68 68 68 70 73 76 78 78 78 79 79 78 79 82 85 87 88 89 89 90 90 91 92 94 96
39 39 39 39 38 38 40 40 39 37 37 37 37 37 36 35 35 35 35 38 42 43 42 42 43 42 43 43 42 41 41 42 42 42 42 43 43 44 45 46 48 49 49 49 51 52 53 55 56 57 59 61 62 62 62 62 64 67 70 69 68 68 69 71 74 77 78 78 79 79 79 79 81 84 86 88 89 90 90 91 91 92 94 96 98
41 41 41 40 40 39 40 42 42 41 41 41 41 39 38 37 38 37 37 38 41 43 43 44 44 44 45 46 45 44 45 46 46 46 45 45 46 47 48 50 52 53 53 53 53 54 55 56 56 57 60 62 63 64 63 64 66 68 68 67 68 69 71 73 75 77 78 78 79 79 79 81 83 85 87 88 89 90 91 92 92 94 95 97 99
42 43 43 42 42 41 41 42 44 45 45 45 43 41 40 40 40 41 41 42 43 43 43 43 44 45 46 48 49 49 49 50 50 49 49 50 51 51 52 53 55 57 58 58 57 57 57 58 58 60 61 63 64 64 64 64 67 68 68 68 70 71 73 74 76 77 78 78 79 80 81 83 84 86 88 89 90 91 92 93 94 96 97 99 101
44 44 45 45 44 43 42 41 43 45 47 46 45 43 43 43 43 44 45 46 47 46 45 45 45 46 48 49 51 52 52 53 52 51 51 53 54 53 54 56 58 60 61 62 61 60 60 60 61 62 62 63 65 66 66 67 68 68 69 70 71 72 74 76 78 78 78 79 80 81 81 83 86 87 89 90 92 93 94 95 96 98 99 101 103
47 47 47 47 46 46 44 42 42 44 46 46 46 46 46 46 46 47 48 49 50 50 48 48 49 50 51 52 52 53 54 54 54 53 53 54 55 54 55 57 59 61 63 64 63 62 63 63 63 63 64 65 68 69 70 70 70 70 70 71 72 73 75 78 80 80 80 81 82 81 82 85 88 89 91 92 94 95 96 97 99 100 102 104 105
50 49 48 47 47 47 46 44 44 45 47 48 48 48 48 48 48 49 50 51 51 51 51 52 54 55 54 53 53 54 55 56 55 55 56 56 56 56 57 58 60 62 64 65 65 65 65 65 65 65 65 68 71 72 72 72 72 72 72 73 73 75 78 81 82 83 83 83 83 83 85 89 91 92 94 95 95 96 98 99 100 102 104 106 107
52 51 50 48 48 48 48 48 48 48 49 50 51 51 51 51 52 52 53 53 53 54 55 57 58 57 56 55 55 55 56 57 57 57 58 58 58 58 59 60 60 61 63 65 67 67 66 66 67 66 67 71 74 74 74 75 75 75 75 75 75 77 81 83 84 84 84 84 84 86 89 93 94 96 97 98 98 99 100 101 102 104 106 108 109
53 52 50 50 50 50 51 51 51 52 52 52 53 53 54 55 56 57 57 57 58 59 59 60 59 58 58 58 58 58 58 59 59 59 60 60 60 60 60 61 62 62 63 65 67 68 69 69 69 68 70 74 76 76 76 77 77 77 77 76 78 81 84 84 84 85 85 85 87 89 93 95 97 98 100 101 101 102 103 104 105 107 109 110 112
52 52 51 52 53 53 54 54 54 55 55 55 55 55 56 58 58 58 59 59 60 60 61 60 60 60 61 61 61 60 61 62 62 62 61 62 62 62 62 63 64 64 65 66 68 70 71 71 70 70 73 76 77 77 78 78 77 77 78 80 83 84 84 84 84 85 87 88 91 93 95 96 98 99 101 103 104 105 106 107 109 110 112 113 115
54 54 54 54 54 54 55 55 56 57 58 58 57 57 57 59 60 60 61 61 61 61 61 61 61 61 62 63 63 63 65 66 66 64 63 63 64 64 64 63 64 65 65 66 68 70 71 71 71 73 76 78 78 78 77 78 79 80 82 84 85 85 85 85 85 87 89 91 93 95 96 97 99 101 104 105 106 107 109 110 112 113 114 116 117
58 57 57 56 55 55 54 55 56 57 58 58 59 59 59 60 62 63 63 63 63 62 61 61 61 62 62 64 65 66 67 68 69 67 66 66 66 66 66 65 65 65 65 66 68 70 71 72 74 76 78 80 79 79 79 81 83 84 85 85 86 86 87 87 88 90 91 92 94 95 96 98 101 104 106 108 109 110 111 113 115 116 117 118 119
61 60 59 58 57 57 56 55 56 56 56 57 58 59 59 59 62 64 65 65 65 64 63 62 63 63 64 66 68 69 70 70 70 70 69 68 69 69 68 68 68 68 68 69 70 71 73 75 78 79 81 81 81 81 83 84 85 85 86 86 87 88 89 90 91 92 93 94 95 96 97 100 104 107 110 111 112 113 114 116 117 119 120 120 122
62 62 61 60 59 58 58 58 57 57 57 57 57 58 58 58 60 63 65 66 66 65 65 64 65 65 66 67 68 70 71 72 72 72 71 70 71 71 70 70 70 71 72 73 73 75 77 79 81 82 82 82 83 85 86 86 86 87 87 88 88 89 91 92 93 94 95 95 96 97 100 104 107 110 112 114 115 116 117 119 120 121 122 123 124
Wind_Direction
5 10 16 20 17 13 8 5 1 352 345 331 320 312 299 289 276 254 236 227 225 222 219 218 216 213 213 214 214 216 220 221 222 226 232 239 247 253 258 264 267 268 269 272 275 277 279 281 285 289 296 307 324 346 3 13 16 16 16 16 13 9 4 1 359 359 359 0 359 359 356 351 345 341 338 336 336 335 335 337 339 340 342 344 346
8 11 17 20 18 16 14 13 11 3 352 337 324 315 305 292 280 258 240 232 228 223 221 218 218 217 216 216 217 221 224 229 233 241 249 259 267 273 277 279 278 280 283 285 290 296 304 323 3 36 47 48 46 44 42 40 36 31 28 24 20 16 13 10 9 7 6 4 359 355 350 345 342 339 337 336 335 334 335 336 339 341 343 347 348
10 13 18 20 18 17 17 17 18 17 10 359 345 327 312 294 275 257 246 239 234 228 226 222 224 225 222 219 221 223 225 233 243 256 265 275 283 289 297 323 7 45 61 72 75 77 77 75 72 68 65 61 56 53 50 46 40 34 30 26 23 21 18 15 13 8 4 358 354 350 347 344 342 339 337 336 335 334 334 336 338 342 345 347 349
12 16 20 21 19 19 20 20 21 23 25 24 21 5 342 315 295 274 256 242 232 230 230 225 227 226 220 214 211 198 148 84 77 83 90 92 92 91 89 87 86 86 85 85 83 81 78 74 71 69 67 62 57 51 46 42 38 35 32 29 26 21 17 13 9 3 358 354 350 348 347 345 343 341 339 338 336 335 334 335 338 342 345 346 346
14 17 21 23 22 21 23 24 26 28 31 33 34 35 32 33 33 21 316 240 212 213 211 203 204 197 174 130 97 83 80 85 90 93 94 94 92 89 88 87 86 86 84 83 81 78 76 73 70 66 61 56 51 47 44 42 39 37 33 28 22 17 12 7 3 359 355 352 349 348 347 346 345 344 343 342 339 337 336 335 337 340 342 342 343
16 19 22 24 24 24 25 28 32 36 40 43 45 48 51 56 60 64 67 77 103 119 120 111 106 100 93 89 88 89 91 92 92 91 90 89 88 88 87 87 86 85 83 81 78 75 71 67 63 59 55 52 49 46 44 41 37 32 26 21 15 10 4 359 354 351 349 347 347 347 346 346 346 347 347 345 343 340 337 335 335 336 337 338 338
18 21 23 26 27 27 27 30 35 40 46 51 54 57 61 64 67 70 74 79 86 89 89 89 89 90 91 91 90 90 90 89 89 89 89 89 89 88 87 86 84 82 79 76 72 68 64 60 57 55 51 48 44 40 37 31 26 21 15 10 4 359 355 352 349 349 348 348 348 347 347 346 346 346 347 347 346 344 340 335 333 333 333 334 334
20 22 24 27 29 30 30 32 36 40 46 52 56 60 64 68 71 74 78 80 82 83 86 88 89 90 90 89 89 88 89 89 90 90 91 90 89 86 84 81 78 74 71 68 64 61 58 55 52 48 45 41 37 32 27 22 16 11 6 3 360 357 355 354 353 353 352 352 350 348 346 345 344 343 345 346 346 345 342 339 336 335 335 335 334
21 23 25 27 30 32 34 35 37 41 46 52 56 60 65 69 72 76 80 82 83 86 87 88 88 88 89 89 90 91 91 91 91 90 88 86 83 80 77 74 71 68 64 61 59 56 53 50 47 43 39 35 31 26 20 15 10 7 4 2 0 358 357 356 355 354 353 351 348 346 345 343 342 341 342 343 343 342 341 340 339 338 337 337 335
22 24 27 29 31 34 37 38 39 43 48 52 58 61 65 69 73 77 80 83 85 87 88 88 89 90 91 91 91 91 91 89 87 85 82 79 76 74 71 69 66 63 60 58 56 54 51 49 46 42 38 33 28 23 18 14 10 7 5 3 1 360 358 357 355 354 352 349 347 345 343 341 340 340 340 340 339 339 338 337 337 336 336 336 335
23 25 28 30 33 35 39 42 42 45 49 54 58 63 66 70 74 78 81 84 86 87 89 90 90 91 91 91 89 88 86 84 82 80 77 75 72 70 68 66 64 62 60 58 55 53 50 47 43 39 35 31 26 23 19 15 12 9 6 4 1 359 357 356 354 352 350 348 346 344 342 341 339 338 338 338 338 337 336 335 335 335 335 335 335
24 26 29 32 34 37 40 44 46 48 51 55 59 64 68 71 75 79 81 84 86 88 89 89 90 90 89 88 86 84 82 81 79 77 75 73 71 69 67 65 63 61 59 56 53 50 47 44 40 37 34 31 28 25 22 19 15 12 9 5 2 360 357 355 353 351 349 347 345 344 343 341 340 338 338 337 336 336 335 334 334 334 334 334 334
25 28 30 33 36 39 42 45 48 51 53 57 61 65 69 72 75 79 81 84 85 87 87 88 88 88 87 85 83 82 80 79 78 76 74 72 69 67 65 63 61 58 56 53 50 47 45 42 40 37 35 32 30 27 25 22 19 15 12 9 5 2 359 356 354 352 350 348 346 344 343 341 339 337 336 335 334 333 333 333 333 333 333 333 332
25 28 30 33 36 40 44 46 48 51 54 57 61 65 69 72 75 78 80 82 83 84 85 85 85 85 84 82 81 80 79 78 76 74 72 70 67 64 63 60 59 56 54 51 48 46 43 41 40 38 36 33 30 28 25 22 19 16 13 11 7 4 1 358 356 353 351 348 346 344 343 340 338 335 334 332 331 330 330 330 331 331 331 331 330
23 28 31 33 36 40 45 47 49 51 54 57 61 64 67 70 73 76 78 80 81 81 82 82 82 81 81 80 80 79 78 76 74 72 69 67 65 62 60 57 56 54 52 50 47 46 43 41 39 37 35 33 31 28 25 23 20 17 15 12 10 6 4 1 358 356 352 349 347 344 341 338 335 333 330 328 327 327 327 328 328 328 328 328 327
21 26 30 33 36 40 44 48 50 52 55 58 61 63 65 67 70 73 75 76 77 78 79 79 79 79 79 79 78 78 76 74 71 69 66 64 62 60 58 56 55 53 52 50 48 46 44 42 39 37 36 34 32 29 27 25 22 19 17 15 12 9 6 4 1 358 354 350 347 343 340 336 332 330 327 326 325 325 325 325 325 325 325 324 324
20 25 29 33 36 39 43 47 50 52 54 57 59 61 62 63 65 67 69 71 73 74 74 75 75 75 76 76 76 74 73 70 68 66 64 62 61 59 59 57 56 54 52 50 48 46 44 42 40 38 35 32 29 27 24 22 20 17 15 13 10 8 5 3 0 357 353 349 345 341 338 333 330 328 326 324 324 323 323 323 323 323 322 322 322
18 24 28 32 36 39 42 46 49 51 51 53 56 58 59 59 60 61 63 65 67 68 69 70 70 71 72 73 73 72 71 69 68 66 65 64 62 61 60 58 56 53 50 47 45 43 40 38 36 33 30 27 24 21 19 16 14 12 11 9 7 5 2 359 356 352 348 345 341 338 336 333 330 328 325 324 322 322 321 321 320 320 320 321 323
14 23 27 30 34 38 41 45 49 51 51 51 54 57 58 58 58 59 60 62 63 64 65 67 68 69 70 71 71 71 70 69 68 67 65 64 62 60 58 54 51 47 44 41 38 36 34 31 28 26 24 22 20 19 18 16 14 11 10 8 6 3 1 358 355 352 348 344 341 338 336 333 331 329 328 326 325 323 322 321 321 321 322 324 325
5 19 27 29 31 35 38 42 48 52 52 51 52 55 58 58 58 59 59 60 61 62 63 65 66 66 67 67 67 67 66 65 64 63 62 60 57 54 51 47 43 40 37 35 33 32 30 28 25 23 21 19 17 16 15 14 13 11 9 8 5 3 0 359 357 354 351 348 345 342 339 336 335 333 331 330 328 327 326 325 325 325 326 326 326
353 9 23 29 29 30 32 36 43 50 52 51 50 51 55 57 57 58 58 59 59 59 59 60 61 60 60 60 60 60 59 58 57 56 54 52 49 45 43 40 37 35 32 30 28 27 25 23 21 18 15 13 12 10 9 8 8 6 5 4 2 0 359 358 357 355 353 351 348 345 342 340 338 335 333 332 331 330 329 328 328 328 328 328 328
339 353 11 24 28 27 26 28 33 42 48 50 49 47 49 52 54 55 56 57 57 55 55 54 54 53 53 53 53 53 53 52 51 50 47 45 42 39 36 34 31 29 26 23 21 18 16 14 12 10 8 6 5 3 2 2 2 1 1 0 359 357 356 355 355 354 353 351 349 347 344 342 339 336 334 333 332 331 330 330 329 329 328 328 328
327 336 351 9 21 24 22 20 21 27 35 41 44 43 43 45 46 47 49 52 53 53 51 50 49 48 47 47 47 47 47 46 44 42 40 37 35 32 29 26 23 20 17 14 11 8 5 3 2 1 360 358 357 357 356 356 356 356 356 356 356 354 353 353 352 351 350 349 348 347 345 343 341 338 335 333 332 331 330 329 329 328 327 326 326
317 323 331 346 1 13 17 15 12 11 13 20 28 32 32 33 34 33 35 38 43 44 44 43 41 40 38 37 36 36 35 33 31 29 27 25 22 20 17 15 12 10 7 4 2 359 357 355 354 353 353 352 351 351 351 350 351 351 351 351 351 350 350 350 349 349 348 346 346 345 344 344 342 339 336 333 331 330 329 328 328 327 326 326 325
309 313 318 326 336 348 359 5 5 2 358 357 3 11 14 15 15 15 17 19 22 25 26 27 27 26 24 23 21 20 19 17 16 14 13 11 9 7 5 3 1 360 358 356 355 354 352 351 350 349 347 346 346 346 346 346 346 347 347 346 346 346 346 346 346 346 346 345 343 342 342 342 341 340 337 334 332 330 329 328 327 327 326 326 326
304 306 309 314 319 326 334 342 349 351 349 346 346 350 352 354 354 355 357 0 2 3 4 5 6 7 7 6 5 4 3 3 2 2 1 0 359 357 355 354 353 352 350 349 348 348 347 347 346 345 344 343 342 341 341 342 342 343 343 342 342 342 342 342 342 342 342 342 341 340 340 339 339 339 337 335 333 331 329 328 327 327 326 326 326
298 300 301 304 308 312 316 321 327 333 335 335 334 336 337 336 336 337 339 342 345 346 347 348 348 349 351 351 351 351 351 351 351 352 352 351 351 349 348 347 346 345 344 343 343 343 343 343 343 342 342 341 339 338 338 338 339 340 339 339 339 339 339 339 339 339 339 339 339 338 338 337 337 337 336 335 334 332 330 329 327 326 326 326 326
293 295 296 297 300 303 305 307 311 316 320 322 323 324 325 325 324 323 325 326 329 332 334 335 336 337 339 340 340 340 341 341 342 343 343 343 343 343 343 342 341 340 340 339 339 339 339 339 339 339 339 338 337 336 336 336 336 337 337 337 337 336 337 337 337 336 336 336 336 336 336 336 335 335 335 334 334 333 331 329 328 326 326 326 326
289 291 292 292 293 296 297 298 300 303 307 311 313 315 316 317 317 317 316 316 317 319 322 326 327 328 329 331 332 332 333 333 334 335 335 336 337 337 338 337 337 336 336 335 335 336 336 336 336 336 336 336 335 333 333 333 334 335 335 334 334 334 335 334 335 335 334 334 334 334 334 334 334 333 333 333 333 332 331 330 328 327 326 325 325
285 288 289 288 289 291 292 292 292 295 298 301 303 306 309 311 312 313 312 311 311 312 313 316 319 321 322 324 325 326 326 327 327 327 328 329 330 331 332 332 333 333 332 332 332 332 333 333 333 333 333 333 332 330 329 330 331 333 333 332 332 332 332 332 332 333 333 332 332 332 332 332 332 332 332 332 331 331 330 329 328 327 326 325 325
283 285 286 286 286 288 289 289 287 287 291 294 296 298 302 304 306 310 310 309 309 309 310 310 312 315 317 319 320 321 322 322 322 323 323 324 325 326 326 327 327 328 328 328 328 328 329 330 330 330 330 330 329 328 326 327 328 330 330 329 329 329 329 330 330 331 331 331 331 330 330 330 330 330 330 330 330 330 329 329 328 327 326 325 324
281 282 283 284 283 284 286 286 284 283 286 289 292 294 296 298 300 303 305 307 308 308 308 308 308 309 312 314 316 317 318 319 319 320 320 320 321 321 322 322 322 323 324 325 325 324 325 326 327 327 327 327 326 325 324 324 326 327 327 326 326 326 327 327 328 329 329 329 329 329 328 329 329 329 328 329 329 329 328 328 327 327 326 325 324
278 279 280 281 280 280 282 283 282 281 283 286 288 290 292 294 295 297 299 303 305 306 306 306 306 306 308 310 311 313 315 315 316 317 318 318 319 318 319 319 319 319 320 321 321 321 321 322 324 324 324 324 323 322 321 322 323 324 324 324 324 324 324 325 326 327 327 327 327 327 326 326 327 327 327 327 327 327 327 327 327 326 325 325 324
274 276 277 277 276 276 277 280 281 280 282 284 285 287 289 292 292 291 293 298 301 302 303 303 304 304 305 306 307 309 311 313 313 314 316 317 317 317 317 317 317 317 317 317 317 318 318 319 321 322 322 321 321 321 320 320 321 321 321 321 321 321 322 322 324 325 325 325 325 325 325 324 324 325 325 325 325 325 325 325 325 325 324 323 323
271 273 273 273 274 274 274 277 280 280 281 282 283 285 287 290 291 289 290 294 295 296 298 300 301 303 304 304 304 305 307 309 309 311 312 314 314 315 316 316 316 315 315 315 315 315 315 317 318 319 319 319 319 319 318 318 318 318 319 319 319 319 319 320 321 322 323 323 323 323 323 322 322 322 323 324 324 324 324 323 323 323 323 322 322
269 270 271 272 273 273 273 274 277 279 280 280 281 284 285 288 289 288 288 289 290 290 293 296 299 301 303 303 302 303 303 304 305 307 308 309 310 311 313 313 313 314 314 313 313 313 313 314 316 316 317 317 317 317 317 317 317 317 317 317 317 317 317 318 320 320 321 321 321 321 321 321 320 320 321 321 322 322 322 322 321 321 321 321 320
267 268 269 271 273 273 273 271 271 275 279 279 281 283 282 283 284 285 286 286 286 286 288 292 295 298 301 302 301 300 301 302 302 304 305 305 306 307 309 310 310 311 311 311 311 311 312 313 313 314 315 315 315 316 317 317 316 316 315 315 315 314 315 317 318 319 319 320 320 320 319 319 318 318 318 319 320 320 320 320 320 319 319 320 319
264 266 267 269 271 271 271 270 268 271 276 278 280 282 282 281 282 284 285 286 286 284 285 289 293 296 299 301 302 300 300 300 301 301 302 303 303 304 306 306 307 308 309 310 310 310 311 311 311 312 313 313 313 314 316 317 315 315 315 315 314 313 314 315 316 317 317 318 318 318 318 317 316 316 316 317 318 318 318 318 318 318 318 318 318
263 265 266 267 269 270 270 269 268 269 273 277 280 281 282 281 282 285 286 287 288 287 286 289 292 294 297 299 301 300 298 298 299 299 300 301 300 301 302 303 304 306 307 308 308 308 308 308 309 310 310 310 312 313 315 315 314 316 316 315 314 313 313 314 315 315 316 317 316 316 315 315 315 315 315 315 316 316 317 317 317 317 317 318 318
263 264 265 267 268 269 269 269 269 269 271 276 279 282 282 281 280 283 286 287 289 289 289 290 292 295 296 297 299 300 298 297 298 299 299 300 300 299 299 301 303 305 306 306 307 307 307 306 306 307 308 309 311 313 314 314 314 315 315 313 312 311 311 312 313 313 314 315 314 314 314 314 314 314 314 314 315 315 316 316 316 316 317 317 317
264 264 264 265 266 267 267 269 272 272 273 275 278 280 281 280 279 281 283 285 286 286 288 290 292 294 295 295 297 299 299 298 298 299 299 300 301 300 298 300 302 303 304 305 306 307 307 306 306 306 307 309 311 313 313 313 312 311 311 310 310 309 310 310 311 311 312 312 312 312 312 313 313 313 313 313 314 314 315 315 316 316 316 316 316
264 264 264 263 264 265 265 268 271 274 275 276 276 277 278 280 279 279 280 282 283 284 286 287 289 291 293 294 296 299 299 299 299 299 298 299 301 301 300 300 301 302 303 303 304 306 306 306 306 307 308 309 311 312 312 311 309 309 309 308 308 308 309 310 310 311 311 311 311 311 311 312 313 313 313 313 314 314 315 315 315 315 316 315 316
264 264 264 263 264 265 265 266 269 273 275 276 276 277 278 279 279 278 279 280 281 283 285 287 289 292 293 294 296 298 299 299 299 298 297 297 298 299 300 300 300 301 300 301 303 304 304 305 306 306 307 308 311 311 311 310 309 308 308 307 307 308 309 310 311 310 310 309 310 310 310 312 313 314 314 314 314 314 314 314 315 315 315 315 315
264 263 263 263 265 266 266 266 268 270 272 273 273 274 276 277 277 277 278 279 280 283 285 288 290 293 293 293 295 297 298 298 298 298 298 298 297 297 297 297 298 299 299 300 302 303 302 303 304 305 306 308 310 310 310 310 309 308 307 307 307 308 309 311 311 310 309 309 309 309 309 311 313 314 314 314 314 314 314 314 314 314 314 314 315
264 263 264 265 266 267 267 266 267 268 269 271 272 272 273 273 274 275 276 278 281 283 285 287 290 291 291 292 294 295 297 297 298 298 299 299 298 297 296 296 296 297 297 298 299 301 301 301 303 304 305 307 309 310 310 309 308 307 307 306 307 308 309 311 310 310 309 309 309 309 310 311 313 313 314 314 314 314 314 314 313 313 314 314 314
264 264 265 266 267 268 267 266 266 267 269 270 272 273 273 274 274 275 276 278 280 283 285 287 289 289 290 291 292 294 296 297 296 297 298 299 299 298 297 296 296 296 296 296 297 299 299 300 302 303 304 307 308 309 309 309 307 306 306 306 307 308 309 310 310 310 309 308 308 309 310 311 312 313 313 313 313 313 313 313 313 313 314 314 314
265 266 266 267 267 267 267 267 267 268 268 270 271 273 274 275 275 275 276 277 279 281 283 286 288 289 290 290 291 293 295 295 296 295 296 297 298 298 298 298 298 298 297 297 297 297 299 300 301 301 303 306 307 308 308 308 307 306 306 306 307 308 309 310 310 310 309 309 309 310 310 311 312 312 312 312 312 312 313 313 313 313 313 314 314
267 268 268 268 269 269 268 267 267 268 269 270 272 273 274 275 276 277 277 277 278 280 282 284 287 288 289 290 291 292 293 294 295 294 294 295 296 297 298 298 298 299 298 298 298 298 299 299 299 300 302 304 306 307 307 306 305 305 305 306 307 308 308 309 309 309 309 309 310 310 310 310 310 310 310 311 311 312 312 312 313 313 314 314 315
267 268 269 269 270 270 269 268 268 269 270 271 273 274 274 275 276 277 277 278 278 280 282 284 285 287 288 289 290 290 291 292 293 293 293 293 294 295 296 297 298 298 298 297 298 298 298 298 298 299 301 303 304 305 305 304 304 305 306 306 307 307 308 308 308 308 309 309 310 309 309 309 309 309 310 310 311 311 312 312 313 313 314 315 315
266 267 269 270 270 270 271 270 270 271 271 272 272 273 274 275 276 276 277 277 278 279 281 282 283 285 286 287 288 289 289 290 291 292 292 292 292 293 294 295 296 296 296 296 296 296 297 297 298 299 300 301 302 303 303 303 304 304 305 306 306 307 307 308 308 309 309 309 309 308 307 307 308 309 309 310 311 311 312 313 313 314 314 315 315
264 266 267 268 269 270 270 271 271 272 272 272 272 272 274 274 275 275 276 276 277 277 278 280 281 283 284 285 286 287 288 289 289 290 290 291 291 292 293 293 294 294 294 295 296 295 296 296 297 298 299 300 300 301 302 303 303 304 304 305 306 306 307 308 308 309 309 308 307 307 306 307 308 309 309 310 311 312 312 313 313 314 315 315 316
Height
10889 10886 10883 10881 10880 10878 10877 10875 10874 10874 10874 10874 10874 10874 10874 10874 10874 10875 10876 10876 10877 10878 10878 10878 10878 10879 10879 10879 10879 10879 10879 10879 10880 10880 10880 10881 10881 10882 10882 10882 10881 10881 10882 10882 10882 10882 10882 10882 10883 10882 10882 10882 10881 10881 10881 10880 10880 10879 10879 10879 10878 10878 10878 10877 10876 10875 10874 10874 10873 10872 10871 10870 10869 10868 10866 10865 10863 10862 10861 10859 10857 10856 10855 10853 10852
10891 10887 10884 10882 10880 10879 10878 10876 10875 10875 10875 10875 10875 10874 10874 10874 10874 10875 10875 10876 10877 10877 10878 10878 10878 10878 10878 10879 10879 10879 10879 10879 10879 10880 10880 10880 10881 10881 10881 10881 10881 10881 10881 10881 10881 10882 10882 10882 10882 10882 10882 10881 10881 10881 10881 10880 10880 10880 10880 10879 10879 10878 10878 10877 10876 10875 10874 10873 10873 10872 10871 10870 10869 10867 10866 10864 10863 10861 10860 10858 10857 10855 10854 10852 10850
10893 10889 10885 10883 10881 10879 10878 10876 10876 10875 10875 10875 10875 10875 10874 10874 10875 10875 10875 10876 10876 10877 10877 10877 10877 10877 10878 10878 10879 10879 10879 10879 10880 10880 10880 10881 10881 10881 10881 10881 10881 10881 10881 10881 10882 10882 10882 10882 10882 10882 10882 10882 10881 10881 10881 10881 10881 10880 10880 10880 10879 10879 10878 10877 10876 10875 10875 10874 10873 10872 10871 10869 10868 10867 10865 10864 10862 10861 10859 10858 10856 10855 10853 10851 10849
10895 10891 10888 10885 10883 10881 10879 10877 10876 10876 10875 10875 10875 10875 10875 10875 10875 10875 10875 10876 10876 10877 10877 10877 10877 10877 10878 10878 10879 10879 10879 10879 10880 10880 10881 10881 10881 10881 10882 10882 10882 10882 10882 10882 10882 10882 10882 10882 10882 10883 10883 10883 10882 10882 10882 10882 10881 10881 10880 10880 10880 10879 10878 10878 10877 10876 10875 10874 10873 10872 10871 10869 10868 10866 10865 10863 10862 10860 10858 10857 10855 10853 10851 10849 10847
10897 10894 10891 10888 10886 10884 10882 10880 10878 10877 10876 10875 10875 10875 10875 10875 10875 10875 10875 10876 10876 10876 10876 10877 10877 10877 10878 10878 10879 10879 10879 10880 10880 10881 10881 10882 10882 10882 10882 10882 10883 10883 10883 10883 10883 10883 10883 10884 10884 10884 10884 10883 10883 10883 10882 10882 10882 10882 10881 10881 10880 10879 10879 10878 10877 10876 10875 10874 10873 10871 10870 10869 10867 10866 10864 10862 10861 10859 10857 10855 10854 10852 10850 10848 10845
10899 10896 10893 10891 10889 10887 10885 10883 10881 10879 10878 10877 10876 10876 10875 10875 10875 10875 10876 10876 10876 10876 10877 10877 10877 10878 10878 10878 10879 10879 10880 10880 10881 10881 10882 10882 10883 10883 10883 10884 10884 10884 10884 10884 10884 10885 10885 10885 10884 10884 10884 10884 10884 10883 10883 10883 10883 10882 10882 10881 10881 10880 10879 10878 10877 10876 10875 10874 10872 10871 10870 10868 10866 10864 10863 10861 10859 10857 10856 10854 10852 10850 10848 10846 10844
10901 10898 10896 10894 10891 10889 10887 10885 10883 10882 10880 10879 10878 10877 10877 10876 10876 10876 10876 10876 10877 10877 10877 10878 10878 10878 10879 10879 10879 10880 10881 10881 10882 10882 10883 10884 10884 10885 10885 10885 10885 10886 10886 10886 10886 10886 10885 10885 10885 10885 10885 10885 10885 10884 10884 10884 10883 10883 10882 10882 10881 10880 10879 10878 10877 10876 10874 10873 10872 10870 10868 10867 10865 10863 10861 10860 10858 10856 10854 10852 10850 10848 10846 10844 10842
10903 10900 10898 10896 10894 10892 10890 10888 10886 10884 10882 10881 10880 10879 10879 10878 10877 10877 10877 10877 10877 10878 10878 10879 10879 10879 10880 10880 10880 10881 10882 10882 10883 10884 10885 10885 10886 10886 10886 10887 10887 10887 10887 10887 10887 10887 10887 10886 10886 10886 10886 10886 10885 10885 10885 10884 10884 10883 10882 10881 10880 10879 10878 10877 10876 10875 10873 10872 10870 10868 10867 10865 10863 10862 10860 10858 10857 10855 10853 10851 10849 10847 10845 10843 10841
10905 10902 10900 10898 10896 10894 10892 10890 10888 10887 10885 10884 10882 10882 10881 10880 10879 10879 10879 10879 10879 10879 10880 10880 10880 10881 10881 10881 10881 10882 10883 10884 10885 10886 10886 10887 10887 10887 10888 10888 10888 10888 10888 10888 10888 10888 10888 10888 10887 10887 10887 10886 10886 10885 10885 10884 10883 10882 10881 10880 10879 10878 10877 10876 10875 10873 10872 10870 10868 10867 10865 10863 10862 10860 10858 10857 10855 10853 10852 10850 10848 10846 10844 10841 10839
10907 10904 10902 10900 10898 10896 10894 10892 10891 10889 10888 10886 10885 10884 10883 10882 10881 10881 10881 10881 10881 10881 10881 10882 10882 10882 10882 10883 10883 10884 10885 10886 10886 10887 10888 10888 10888 10889 10889 10889 10889 10889 10889 10889 10889 10889 10889 10888 10888 10887 10887 10886 10886 10885 10884 10883 10882 10881 10880 10879 10878 10877 10876 10875 10873 10872 10870 10869 10867 10865 10864 10862 10860 10859 10857 10856 10854 10852 10850 10848 10846 10844 10842 10840 10837
10909 10906 10904 10902 10900 10898 10896 10894 10893 10892 10890 10889 10887 10886 10885 10884 10883 10883 10883 10883 10883 10883 10883 10883 10884 10884 10884 10885 10885 10886 10886 10887 10888 10888 10889 10889 10890 10890 10890 10890 10890 10890 10890 10890 10890 10890 10889 10889 10888 10888 10887 10886 10886 10885 10884 10883 10882 10880 10879 10878 10877 10876 10875 10874 10872 10871 10869 10867 10866 10864 10863 10861 10859 10858 10856 10854 10852 10850 10848 10846 10844 10842 10840 10837 10835
10911 10909 10907 10904 10902 10900 10898 10896 10895 10894 10893 10891 10890 10889 10888 10887 10886 10885 10885 10885 10885 10886 10886 10886 10886 10886 10886 10886 10886 10887 10888 10888 10889 10889 10890 10890 10891 10891 10891 10891 10891 10891 10891 10891 10890 10890 10890 10889 10888 10887 10887 10886 10885 10884 10883 10882 10881 10880 10879 10877 10876 10875 10874 10872 10871 10870 10868 10866 10865 10863 10862 10860 10858 10856 10854 10852 10850 10848 10846 10844 10842 10840 10837 10835 10832
10914 10911 10909 10907 10905 10902 10901 10899 10898 10897 10895 10894 10893 10891 10890 10890 10889 10888 10888 10888 10888 10888 10888 10888 10888 10888 10888 10888 10888 10888 10889 10890 10890 10891 10891 10891 10892 10892 10892 10892 10892 10892 10891 10891 10891 10890 10890 10889 10888 10887 10886 10886 10885 10884 10883 10882 10881 10879 10878 10877 10876 10874 10873 10872 10870 10869 10867 10866 10864 10862 10860 10859 10857 10854 10852 10850 10848 10846 10844 10842 10840 10837 10835 10832 10830
10915 10913 10911 10909 10907 10905 10903 10902 10901 10899 10898 10897 10895 10894 10893 10893 10892 10891 10891 10891 10890 10890 10890 10890 10890 10890 10889 10889 10889 10889 10890 10891 10891 10892 10892 10892 10892 10893 10893 10893 10893 10892 10892 10891 10891 10890 10890 10889 10888 10887 10886 10885 10884 10883 10882 10881 10880 10879 10877 10876 10875 10873 10872 10871 10869 10868 10866 10864 10862 10860 10859 10857 10855 10853 10851 10849 10846 10844 10842 10840 10837 10835 10832 10829 10827
10917 10915 10913 10911 10910 10908 10906 10904 10903 10902 10901 10899 10898 10897 10896 10895 10895 10894 10894 10893 10893 10893 10893 10892 10892 10891 10890 10890 10890 10891 10891 10892 10892 10893 10893 10893 10893 10894 10894 10893 10893 10893 10892 10892 10891 10890 10890 10889 10888 10887 10886 10885 10884 10883 10882 10881 10879 10878 10876 10875 10874 10872 10871 10869 10868 10866 10864 10862 10860 10859 10857 10855 10853 10851 10849 10847 10845 10842 10840 10838 10835 10833 10830 10828 10825
10918 10916 10915 10913 10912 10910 10908 10907 10906 10905 10903 10902 10901 10900 10899 10898 10898 10897 10896 10896 10895 10895 10895 10894 10894 10893 10892 10892 10892 10892 10893 10893 10893 10894 10894 10894 10894 10894 10894 10894 10894 10893 10893 10892 10891 10891 10890 10889 10888 10887 10886 10885 10884 10883 10882 10880 10879 10877 10876 10875 10873 10872 10870 10868 10866 10865 10863 10861 10859 10857 10855 10853 10851 10849 10847 10845 10842 10840 10838 10835 10833 10830 10828 10825 10823
10919 10918 10916 10915 10913 10912 10910 10909 10908 10907 10906 10905 10903 10902 10902 10901 10900 10900 10899 10898 10898 10898 10897 10897 10896 10895 10895 10894 10894 10894 10894 10895 10895 10895 10895 10895 10895 10895 10895 10895 10894 10894 10893 10892 10892 10891 10890 10889 10888 10887 10886 10885 10884 10883 10881 10880 10878 10877 10876 10874 10873 10871 10869 10868 10866 10864 10862 10860 10858 10856 10854 10852 10849 10847 10845 10842 10840 10838 10835 10833 10830 10828 10826 10823 10820
10920 10919 10917 10916 10915 10914 10913 10911 10910 10909 10908 10907 10906 10904 10904 10903 10903 10902 10902 10901 10901 10900 10900 10899 10899 10898 10897 10897 10896 10896 10896 10896 10896 10896 10896 10896 10896 10896 10896 10895 10895 10894 10893 10893 10892 10891 10890 10889 10888 10887 10886 10885 10884 10883 10881 10880 10878 10877 10875 10874 10872 10870 10869 10867 10865 10864 10862 10859 10857 10855 10852 10850 10847 10845 10842 10840 10838 10835 10833 10831 10828 10826 10823 10820 10817
10920 10919 10918 10918 10917 10916 10915 10914 10912 10911 10910 10909 10908 10907 10906 10906 10905 10905 10904 10903 10903 10903 10902 10901 10901 10900 10900 10899 10899 10898 10898 10898 10898 10898 10897 10897 10897 10897 10896 10896 10895 10895 10894 10893 10893 10892 10891 10890 10889 10888 10886 10885 10884 10883 10881 10880 10878 10877 10875 10874 10872 10870 10868 10867 10865 10863 10861 10858 10856 10853 10851 10848 10845 10843 10840 10838 10835 10833 10831 10828 10826 10823 10820 10818 10814
10921 10920 10919 10919 10918 10917 10916 10916 10914 10913 10912 10911 10910 10909 10908 10907 10907 10906 10906 10905 10905 10905 10904 10904 10903 10903 10902 10901 10901 10900 10900 10900 10900 10899 10899 10899 10898 10898 10897 10896 10896 10895 10895 10894 10893 10892 10891 10890 10889 10888 10886 10885 10884 10882 10881 10879 10878 10876 10875 10873 10872 10870 10868 10866 10864 10861 10859 10856 10854 10851 10848 10846 10843 10840 10838 10835 10833 10830 10828 10826 10823 10820 10818 10815 10812
10922 10921 10920 10919 10919 10918 10918 10917 10916 10915 10913 10913 10912 10911 10910 10909 10908 10908 10907 10907 10907 10906 10906 10905 10905 10905 10904 10903 10903 10902 10902 10902 10901 10901 10900 10900 10899 10898 10898 10897 10896 10896 10895 10894 10893 10892 10891 10890 10889 10887 10886 10885 10883 10882 10880 10879 10877 10876 10874 10872 10871 10868 10866 10864 10862 10860 10857 10854 10852 10849 10847 10844 10841 10839 10836 10834 10831 10828 10826 10823 10820 10818 10815 10812 10809
10922 10921 10921 10920 10920 10919 10919 10918 10917 10916 10915 10914 10913 10912 10911 10910 10910 10909 10909 10908 10908 10908 10907 10907 10906 10906 10905 10905 10904 10904 10903 10903 10903 10902 10901 10901 10900 10899 10898 10898 10897 10896 10895 10894 10893 10892 10891 10889 10888 10887 10885 10884 10882 10881 10879 10878 10876 10874 10873 10871 10869 10866 10864 10862 10860 10858 10855 10853 10850 10848 10845 10843 10840 10837 10835 10832 10829 10826 10823 10821 10818 10815 10812 10809 10806
10922 10921 10921 10921 10920 10920 10919 10918 10918 10917 10916 10915 10914 10913 10912 10912 10911 10911 10910 10909 10909 10909 10908 10908 10908 10907 10907 10906 10906 10905 10905 10904 10903 10903 10902 10901 10900 10899 10898 10898 10897 10896 10895 10894 10893 10891 10890 10889 10887 10886 10884 10883 10881 10879 10878 10876 10874 10872 10871 10869 10867 10864 10862 10860 10858 10856 10854 10851 10849 10846 10844 10841 10838 10836 10832 10830 10827 10824 10821 10817 10814 10811 10808 10805 10802
10921 10921 10921 10920 10920 10920 10919 10919 10918 10917 10917 10916 10915 10914 10913 10913 10912 10912 10911 10911 10910 10910 10909 10909 10908 10908 10907 10907 10906 10906 10905 10904 10904 10903 10902 10901 10900 10899 10898 10898 10897 10896 10895 10893 10892 10891 10890 10888 10886 10885 10883 10881 10880 10878 10876 10874 10873 10871 10869 10867 10865 10863 10861 10859 10856 10854 10852 10849 10846 10844 10841 10838 10836 10833 10830 10827 10823 10820 10817 10814 10811 10807 10804 10801 10798
10921 10920 10920 10920 10920 10919 10919 10919 10918 10918 10917 10916 10915 10914 10914 10913 10913 10912 10912 10911 10911 10910 10910 10909 10909 10908 10907 10907 10906 10906 10905 10904 10903 10902 10902 10901 10900 10899 10898 10897 10896 10895 10894 10893 10891 10890 10889 10887 10885 10884 10882 10880 10878 10876 10874 10873 10871 10869 10867 10865 10863 10861 10859 10857 10854 10852 10849 10847 10844 10841 10838 10836 10833 10830 10827 10823 10820 10817 10813 10810 10806 10803 10800 10796 10793
10920 10919 10919 10919 10919 10919 10919 10918 10918 10918 10917 10917 10916 10915 10914 10914 10913 10913 10912 10912 10911 10911 10910 10910 10909 10908 10908 10907 10906 10905 10905 10904 10903 10902 10901 10900 10899 10898 10897 10896 10895 10894 10893 10891 10890 10889 10887 10886 10884 10882 10880 10878 10876 10874 10872 10870 10869 10867 10865 10863 10861 10859 10857 10854 10852 10849 10847 10844 10841 10839 10836 10833 10830 10826 10823 10820 10816 10812 10809 10805 10802 10798 10795 10792 10788
10919 10919 10918 10918 10918 10918 10918 10918 10917 10917 10917 10917 10916 10915 10914 10914 10914 10913 10912 10912 10911 10911 10910 10909 10909 10908 10907 10907 10906 10905 10904 10903 10902 10901 10900 10899 10898 10897 10896 10895 10894 10892 10891 10890 10889 10887 10886 10884 10882 10881 10879 10877 10874 10872 10870 10868 10866 10864 10862 10860 10858 10856 10854 10852 10849 10846 10843 10841 10838 10836 10833 10829 10826 10823 10819 10816 10812 10808 10805 10801 10798 10794 10790 10787 10784
10918 10918 10917 10917 10917 10917 10917 10917 10916 10916 10916 10916 10916 10915 10915 10914 10914 10913 10912 10912 10911 10911 10910 10909 10908 10908 10907 10906 10906 10905 10904 10903 10902 10901 10899 10898 10897 10896 10895 10893 10892 10891 10889 10888 10887 10885 10884 10882 10880 10878 10877 10874 10872 10870 10868 10866 10864 10862 10859 10857 10855 10853 10851 10848 10846 10843 10840 10838 10835 10832 10829 10826 10823 10819 10815 10812 10808 10804 10801 10797 10793 10790 10786 10782 10778
10917 10916 10916 10916 10916 10916 10916 10915 10915 10915 10915 10915 10915 10914 10914 10914 10913 10913 10912 10912 10911 10910 10909 10909 10908 10907 10906 10905 10905 10904 10903 10902 10901 10900 10898 10897 10896 10895 10893 10892 10891 10889 10888 10886 10885 10883 10881 10880 10878 10876 10874 10872 10870 10867 10865 10863 10861 10859 10857 10854 10852 10850 10847 10845 10843 10840 10837 10834 10831 10828 10825 10822 10818 10815 10811 10808 10804 10800 10797 10793 10789 10785 10781 10777 10773
10915 10915 10915 10915 10915 10915 10914 10914 10914 10914 10914 10913 10913 10913 10913 10913 10912 10912 10911 10911 10910 10910 10909 10908 10907 10906 10905 10904 10904 10903 10902 10901 10899 10898 10897 10896 10895 10893 10892 10891 10889 10888 10886 10884 10883 10881 10879 10878 10876 10874 10872 10870 10867 10865 10862 10860 10858 10856 10854 10851 10849 10846 10844 10842 10839 10836 10833 10830 10827 10824 10820 10817 10814 10810 10807 10803 10799 10796 10792 10788 10784 10781 10776 10772 10768
10914 10914 10914 10914 10913 10913 10913 10913 10913 10912 10912 10912 10912 10911 10911 10911 10910 10910 10910 10909 10909 10908 10908 10907 10906 10905 10904 10903 10902 10901 10900 10899 10898 10897 10896 10894 10893 10892 10890 10889 10888 10886 10884 10882 10881 10879 10877 10875 10874 10872 10870 10868 10865 10863 10860 10857 10855 10853 10851 10848 10846 10843 10841 10838 10835 10833 10830 10826 10823 10820 10816 10813 10809 10806 10802 10798 10795 10791 10787 10783 10779 10775 10771 10767 10763
10912 10912 10912 10912 10912 10912 10912 10911 10911 10911 10910 10910 10910 10909 10909 10909 10909 10908 10908 10907 10907 10906 10906 10905 10904 10903 10903 10902 10900 10900 10898 10897 10896 10895 10894 10893 10891 10890 10889 10887 10886 10884 10882 10880 10878 10877 10875 10873 10871 10869 10867 10865 10863 10860 10857 10854 10853 10850 10848 10845 10842 10840 10837 10834 10831 10829 10826 10822 10819 10815 10812 10808 10805 10801 10797 10793 10789 10785 10781 10777 10773 10769 10765 10761 10757
10910 10910 10910 10911 10910 10910 10910 10910 10910 10909 10909 10908 10908 10908 10907 10907 10907 10906 10906 10905 10905 10904 10904 10903 10903 10902 10901 10900 10899 10898 10897 10895 10894 10893 10892 10890 10889 10888 10886 10885 10883 10882 10880 10878 10876 10874 10872 10870 10869 10867 10865 10862 10860 10857 10854 10852 10850 10848 10845 10842 10839 10836 10833 10830 10827 10824 10821 10818 10815 10811 10807 10804 10800 10796 10792 10788 10784 10780 10776 10772 10767 10763 10759 10755 10751
10907 10908 10908 10908 10908 10908 10908 10908 10908 10907 10907 10906 10906 10906 10905 10905 10904 10904 10903 10903 10902 10902 10901 10901 10900 10900 10899 10898 10897 10896 10894 10893 10892 10890 10889 10888 10886 10885 10883 10882 10881 10879 10877 10875 10873 10871 10869 10867 10866 10864 10862 10859 10856 10854 10851 10849 10846 10844 10841 10838 10835 10832 10829 10826 10823 10820 10817 10813 10810 10806 10803 10799 10795 10791 10787 10782 10778 10774 10770 10766 10762 10757 10753 10749 10745
10904 10905 10905 10905 10905 10906 10906 10906 10906 10905 10905 10904 10904 10903 10903 10903 10902 10902 10901 10900 10900 10899 10899 10898 10897 10897 10896 10895 10894 10893 10892 10891 10889 10888 10886 10885 10884 10882 10880 10879 10877 10876 10874 10872 10870 10867 10865 10864 10862 10860 10858 10855 10853 10850 10848 10845 10843 10840 10837 10834 10831 10828 10825 10822 10818 10815 10812 10809 10805 10802 10798 10794 10790 10785 10781 10777 10773 10769 10765 10760 10756 10751 10747 10743 10739
10901 10902 10902 10902 10902 10903 10903 10903 10903 10903 10903 10902 10902 10901 10901 10901 10900 10899 10898 10898 10897 10896 10896 10895 10895 10894 10894 10893 10892 10891 10889 10888 10887 10885 10884 10882 10881 10879 10877 10875 10874 10872 10870 10869 10866 10864 10862 10859 10858 10856 10854 10852 10849 10846 10844 10842 10839 10835 10832 10829 10826 10823 10820 10817 10814 10811 10807 10804 10800 10796 10793 10789 10785 10780 10776 10772 10768 10763 10759 10755 10750 10745 10741 10736 10732
10898 10898 10898 10898 10899 10899 10900 10900 10900 10900 10900 10900 10900 10899 10899 10898 10898 10897 10896 10895 10894 10893 10892 10892 10892 10891 10890 10890 10889 10888 10886 10885 10884 10882 10881 10879 10878 10876 10874 10872 10871 10869 10867 10865 10863 10860 10858 10855 10853 10851 10850 10847 10845 10842 10840 10837 10834 10831 10828 10825 10822 10819 10816 10813 10809 10806 10802 10798 10794 10790 10787 10783 10779 10775 10771 10766 10762 10758 10754 10749 10744 10739 10734 10730 10725
10894 10895 10895 10895 10896 10896 10896 10897 10897 10897 10897 10897 10897 10897 10896 10896 10895 10894 10893 10892 10891 10890 10889 10889 10888 10888 10887 10886 10885 10885 10883 10882 10881 10879 10878 10876 10875 10873 10871 10869 10867 10865 10863 10861 10859 10857 10855 10852 10849 10847 10845 10843 10840 10837 10835 10833 10830 10827 10823 10820 10817 10814 10811 10808 10804 10800 10796 10793 10789 10785 10781 10777 10773 10769 10765 10761 10756 10752 10748 10743 10738 10733 10728 10722 10718
10891 10891 10892 10892 10892 10893 10894 10893 10893 10894 10893 10893 10893 10893 10893 10893 10892 10891 10891 10889 10888 10887 10887 10886 10885 10885 10884 10883 10882 10881 10880 10878 10877 10876 10874 10873 10871 10870 10868 10865 10863 10862 10860 10858 10856 10853 10851 10848 10845 10843 10840 10838 10836 10833 10831 10828 10825 10822 10819 10816 10813 10809 10806 10803 10799 10794 10790 10787 10783 10779 10775 10771 10767 10763 10759 10754 10750 10746 10741 10736 10731 10726 10721 10715 10709
10887 10888 10888 10889 10889 10890 10890 10890 10890 10890 10890 10890 10890 10890 10890 10889 10889 10888 10887 10886 10885 10884 10884 10883 10882 10882 10881 10879 10878 10877 10876 10875 10873 10872 10870 10869 10867 10866 10864 10861 10859 10857 10856 10854 10852 10849 10847 10844 10841 10839 10836 10833 10831 10828 10826 10823 10821 10818 10814 10811 10807 10804 10801 10797 10793 10789 10785 10781 10778 10774 10770 10765 10761 10757 10752 10747 10743 10738 10734 10729 10724 10719 10714 10708 10702
10883 10884 10885 10885 10886 10886 10887 10887 10887 10887 10886 10886 10886 10886 10886 10886 10885 10884 10884 10883 10881 10880 10880 10880 10879 10879 10878 10876 10875 10874 10872 10871 10869 10868 10866 10865 10863 10861 10859 10857 10855 10853 10851 10849 10847 10845 10843 10840 10837 10834 10832 10829 10826 10824 10821 10819 10816 10813 10809 10805 10802 10798 10795 10792 10788 10784 10779 10776 10772 10768 10763 10759 10754 10750 10745 10740 10736 10731 10726 10721 10716 10711 10706 10701 10695
10880 10881 10881 10881 10882 10882 10883 10884 10885 10883 10883 10883 10883 10882 10882 10882 10881 10880 10879 10878 10877 10876 10876 10876 10876 10875 10874 10873 10871 10870 10868 10866 10865 10864 10862 10861 10859 10858 10855 10853 10850 10848 10846 10844 10843 10841 10838 10835 10832 10829 10826 10824 10821 10819 10817 10814 10811 10807 10804 10800 10796 10793 10789 10786 10782 10778 10773 10769 10765 10761 10757 10752 10747 10743 10738 10733 10728 10723 10718 10713 10708 10703 10697 10692 10686
10877 10877 10877 10878 10878 10879 10879 10881 10881 10880 10880 10880 10879 10879 10879 10878 10877 10876 10875 10874 10873 10872 10872 10872 10871 10871 10870 10869 10867 10865 10864 10862 10860 10859 10858 10856 10855 10853 10851 10849 10846 10844 10841 10839 10838 10836 10832 10830 10827 10824 10821 10818 10815 10813 10811 10808 10805 10801 10798 10795 10791 10787 10783 10779 10775 10771 10767 10762 10758 10754 10749 10745 10740 10735 10730 10725 10720 10715 10710 10705 10700 10694 10689 10683 10677
10871 10872 10873 10874 10875 10875 10876 10877 10877 10876 10876 10875 10875 10875 10875 10875 10873 10872 10871 10870 10868 10868 10868 10867 10867 10866 10866 10864 10863 10861 10859 10857 10855 10854 10853 10851 10849 10848 10846 10844 10842 10840 10837 10834 10832 10830 10827 10824 10822 10819 10815 10812 10810 10807 10805 10802 10799 10795 10792 10789 10785 10781 10776 10772 10768 10764 10760 10756 10751 10747 10741 10736 10731 10726 10721 10717 10712 10708 10703 10698 10692 10686 10681 10675 10669
10866 10867 10869 10871 10872 10872 10872 10873 10872 10872 10871 10871 10871 10871 10871 10870 10869 10868 10867 10866 10865 10864 10864 10863 10862 10862 10860 10859 10858 10856 10854 10852 10851 10849 10847 10846 10845 10843 10840 10838 10837 10835 10832 10830 10827 10824 10821 10819 10816 10813 10810 10807 10804 10801 10798 10795 10792 10789 10785 10782 10779 10775 10770 10765 10760 10756 10752 10749 10744 10739 10733 10728 10722 10717 10713 10708 10704 10699 10694 10690 10684 10678 10672 10667 10661
10861 10863 10865 10866 10867 10867 10868 10868 10867 10867 10867 10866 10866 10866 10866 10865 10864 10863 10862 10861 10860 10860 10859 10859 10858 10856 10855 10854 10853 10851 10849 10847 10846 10844 10842 10840 10839 10837 10835 10833 10831 10829 10827 10825 10822 10819 10816 10813 10811 10808 10804 10801 10798 10795 10791 10788 10784 10781 10778 10775 10772 10769 10764 10758 10753 10748 10743 10740 10736 10732 10726 10720 10714 10708 10703 10699 10694 10690 10685 10681 10676 10670 10664 10658 10652
10857 10859 10861 10861 10861 10862 10862 10863 10863 10862 10862 10862 10862 10862 10861 10860 10859 10859 10858 10857 10856 10855 10854 10854 10853 10851 10850 10848 10847 10846 10844 10842 10840 10839 10837 10835 10833 10832 10830 10828 10825 10823 10820 10818 10816 10813 10810 10807 10805 10802 10798 10795 10792 10789 10785 10781 10777 10774 10771 10768 10765 10761 10758 10753 10748 10742 10736 10731 10727 10723 10718 10712 10706 10700 10695 10690 10686 10681 10676 10671 10666 10660 10655 10649 10642
10852 10854 10854 10855 10856 10856 10857 10857 10857 10857 10857 10857 10857 10857 10857 10855 10854 10854 10853 10851 10851 10850 10850 10850 10848 10847 10845 10842 10841 10840 10838 10836 10834 10832 10831 10829 10827 10826 10824 10823 10820 10817 10815 10813 10810 10807 10804 10801 10799 10796 10792 10789 10786 10783 10779 10775 10771 10767 10764 10761 10757 10753 10749 10746 10741 10736 10731 10725 10719 10713 10708 10702 10696 10691 10686 10682 10677 10672 10667 10661 10656 10651 10645 10639 10633
10846 10847 10847 10849 10850 10850 10851 10852 10852 10852 10852 10852 10852 10852 10852 10851 10849 10848 10847 10846 10845 10845 10845 10845 10843 10842 10840 10837 10835 10834 10832 10830 10828 10826 10824 10823 10820 10819 10818 10816 10814 10811 10809 10807 10805 10801 10798 10795 10793 10790 10786 10782 10780 10777 10773 10769 10765 10761 10757 10753 10749 10745 10741 10737 10733 10728 10723 10718 10712 10705 10700 10694 10687 10681 10676 10672 10668 10664 10658 10652 10646 10640 10636 10630 10623
10839 10840 10841 10843 10844 10844 10845 10846 10846 10846 10847 10847 10847 10846 10846 10846 10844 10842 10841 10840 10839 10839 10840 10839 10837 10836 10835 10832 10830 10828 10826 10824 10822 10819 10818 10816 10813 10812 10812 10810 10807 10804 10802 10801 10799 10795 10792 10789 10786 10783 10779 10775 10772 10770 10766 10762 10758 10754 10750 10746 10742 10738 10733 10729 10724 10719 10714 10709 10703 10697 10691 10685 10679 10672 10666 10661 10657 10652 10647 10641 10634 10628 10623 10618 10612
10832 10834 10835 10836 10838 10839 10839 10840 10840 10841 10841 10841 10841 10840 10840 10840 10839 10837 10835 10834 10833 10833 10833 10832 10831 10830 10829 10827 10825 10822 10820 10817 10815 10813 10812 10809 10807 10805 10805 10803 10800 10797 10794 10794 10792 10789 10786 10783 10778 10775 10772 10768 10765 10762 10759 10755 10751 10748 10744 10740 10735 10731 10726 10721 10716 10710 10705 10699 10693 10688 10681 10675 10670 10663 10656 10650 10644 10640 10635 10630 10623 10616 10610 10605 10599